Home   Weather   Lohne (Oldenburg)   Past weeks

Flag for Germany Past Weather in Lohne (Oldenburg), Lower Saxony, Germany — Yesterday and Last 2 Weeks

Now
30 °F

Fog.


Feels Like: 30 °F
Forecast: 29 / 41 °F
Wind: No wind

Location: Bremen Airport

Current Time: Dec 2, 2016 at 11:22:14 pm

Latest Report: Dec 2, 2016 at 10:50 pm


Visibility: N/A

Pressure: 30.24 "Hg

Humidity: 93%

Dew Point: 28 °F

Location of Lohne (Oldenburg)Location

Past Weather in Lohne (Oldenburg) — Graph

°F

Lohne (Oldenburg) Temperature Yesterday

Maximum temperature yesterday: 48 °F (at 11:20 am)
Minimum temperature yesterday: 43 °F (at 12:20 am)
Average temperature yesterday: 46 °F

High & Low Weather Summary for the Past Weeks

 TemperatureHumidityPressure
High57 °F (Nov 21, 11:20 am)100% (Nov 18, 2:20 am)30.60 "Hg (Nov 18, 2:20 am)
Low18 °F (Nov 29, 7:20 am)54% (Nov 20, 7:20 pm)29.27 "Hg (Nov 20, 2:20 pm)
Average41 °F83%30.02 "Hg
* Reported Nov 17 10:20 pm — Dec 2 10:20 pm, Lohne (Oldenburg), Weather by CustomWeather, © 2016

Note: Actual official high and low records may vary slightly from our data, if they occured in-between our weather recording intervals... More about our weather records

Advertising

Lohne (Oldenburg) Weather History for the Previous 24 Hours

Scroll right to see more
 ConditionsComfort  
Time TempWeatherWind HumidityBarometerVisibility
10:20 pm
Fri, Dec 2
30 °FFog.No wind100%30.24 "HgN/A
9:50 pm28 °FFog.2 mph100%30.24 "HgN/A
9:20 pm30 °FFog.No wind93%30.24 "HgN/A
8:50 pm30 °FFog.2 mph100%30.24 "HgN/A
8:20 pm30 °FFog.2 mph100%30.24 "HgN/A
7:50 pm30 °FFog.2 mph93%30.24 "HgN/A
7:20 pm32 °FFog.2 mph93%30.21 "HgN/A
6:50 pm34 °FClear.2 mph87%30.21 "Hg10 mi
6:20 pm32 °FClear.3 mph87%30.21 "Hg10 mi
5:50 pm34 °FClear.2 mph87%30.21 "Hg10 mi
5:20 pm36 °FClear.2 mph81%30.21 "Hg10 mi
4:50 pm39 °FPassing clouds.3 mph70%30.21 "HgN/A
4:20 pm39 °FPassing clouds.6 mph70%30.21 "HgN/A
3:50 pm43 °FPassing clouds.7 mph61%30.21 "HgN/A
3:20 pm43 °FPassing clouds.7 mph66%30.21 "HgN/A
2:50 pm45 °FPassing clouds.8 mph57%30.18 "HgN/A
2:20 pm45 °FPassing clouds.8 mph57%30.18 "HgN/A
1:50 pm45 °FPassing clouds.7 mph57%30.18 "HgN/A
1:20 pm45 °FPassing clouds.8 mph57%30.18 "HgN/A
12:50 pm45 °FPassing clouds.6 mph61%30.18 "HgN/A
12:20 pm45 °FPassing clouds.5 mph61%30.18 "HgN/A
11:50 am45 °FPassing clouds.6 mph61%30.18 "HgN/A
11:20 am43 °FPassing clouds.7 mph71%30.18 "HgN/A
10:50 am43 °FPassing clouds.5 mph66%30.18 "HgN/A
10:20 am41 °FSunny.5 mph76%30.15 "Hg10 mi
9:50 am39 °FSunny.5 mph81%30.15 "Hg10 mi
9:20 am37 °FSunny.7 mph81%30.15 "Hg10 mi
8:50 am39 °FPassing clouds.6 mph75%30.12 "HgN/A
8:20 am39 °FPassing clouds.5 mph75%30.12 "HgN/A
7:50 am41 °FPassing clouds.7 mph70%30.09 "HgN/A
7:20 am43 °FPassing clouds.9 mph71%30.09 "HgN/A
6:50 am43 °FLight rain. Passing clouds.8 mph76%30.09 "HgN/A
6:20 am45 °FLight rain. Partly cloudy.15 mph71%30.07 "HgN/A
5:50 am45 °FPartly cloudy.14 mph76%30.07 "HgN/A
5:20 am46 °FPassing clouds.15 mph76%30.07 "HgN/A
4:50 am46 °FPassing clouds.15 mph82%30.04 "HgN/A
4:20 am46 °FPassing clouds.14 mph87%30.04 "HgN/A
3:50 am46 °FPartly cloudy.17 mph87%30.04 "HgN/A
3:20 am46 °FPartly cloudy.17 mph93%30.01 "HgN/A
2:50 am46 °FPartly cloudy.16 mph93%30.01 "Hg4 mi
2:20 am46 °FPartly cloudy.16 mph93%30.01 "Hg4 mi
1:50 am46 °FPassing clouds.20 mph93%30.01 "HgN/A
1:20 am46 °FPassing clouds.21 mph87%30.01 "HgN/A
12:50 am48 °FPassing clouds.20 mph82%30.01 "HgN/A
12:20 am46 °FPassing clouds.20 mph87%30.01 "HgN/A
11:50 pm
Thu, Dec 1
46 °FPassing clouds.21 mph87%30.01 "HgN/A
11:20 pm46 °FPassing clouds.20 mph87%30.01 "HgN/A
Weather by CustomWeather, © 2016

See weather overviewHow to use our weather pages